Location: *
(43.9905°S, 176.4941°W)
Time: 04:16:48
(UTC+00:00)

Cosmos 1437 Rocket - Pass Details

Date: 08 December 2019
Orbit: 506 x 563 km, 81.2° (Epoch: 17 January)

Event Time Altitude Azimuth Distance (km) Brightness Sun altitude
Rises 07:46:54 0° 177° (S) 2,677 6.9 -5.0°
Reaches altitude 10° 07:49:28 10° 160° (SSE) 1,788 5.7 -5.3°
Maximum altitude 07:52:31 21° 110° (ESE) 1,231 4.3 -5.8°
Drops below altitude 10° 07:55:34 10° 59° (ENE) 1,792 4.8 -6.2°
Enters shadow 07:56:06 - 54° (NE) 1,965 4.9 -6.3°
